GW0049 Weather Reports


time (UTC)temp
C
wind
direction
speed
KPH
gust
KPH
rain 1hr
cm
rain 24hr
cm
rain mn
cm
humidity
%
barometer
mb
20260503175526 15 208 1.6 9.7 0.00 0.00 0.00 72 1012.8
20260503175027 15 197 1.6 12.9 0.00 0.00 0.00 72 1012.8
20260503174546 15 221 3.2 16.1 0.00 0.00 0.00 71 1012.8
20260503174026 15 211 3.2 16.1 0.00 0.00 0.00 73 1012.7
20260503173526 15 220 4.8 14.5 0.00 0.00 0.00 74 1012.7
20260503173052 15 230 4.8 12.9 0.00 0.00 0.00 74 1012.6
20260503172526 15 226 4.8 12.9 0.00 0.00 0.00 75 1012.6
20260503172031 15 229 4.8 12.9 0.00 0.00 0.00 75 1012.5
20260503171535 15 198 3.2 12.9 0.00 0.00 0.00 77 1012.5
20260503171029 15 221 4.8 11.3 0.00 0.00 0.00 77 1012.5
20260503170530 14 226 4.8 11.3 0.00 0.00 0.00 78 1012.6
20260503150529 13 0 0.0 3.2 0.00 0.00 0.00 79 1012.3
20260503131025 13 0 0.0 4.8 0.00 0.00 0.00 79 1010.8
20260503130527 13 229 1.6 6.4 0.00 0.00 0.00 79 1010.7
20260503110526 12 261 3.2 9.7 0.00 0.00 0.00 79 1011.0
20260503081543 13 285 1.6 12.9 0.00 0.00 0.00 79 1011.7
20260503081025 13 269 3.2 14.5 0.00 0.00 0.00 79 1011.7
20260503080526 13 261 6.4 14.5 0.00 0.00 0.00 79 1011.7
20260503072526 13 271 3.2 11.3 0.00 0.00 0.00 79 1011.8
20260503072029 13 257 3.2 11.3 0.00 0.00 0.00 79 1011.9
20260503071541 13 264 3.2 11.3 0.00 0.00 0.00 79 1011.8
20260503071025 12 273 3.2 12.9 0.00 0.00 0.00 79 1011.8
20260503070527 12 260 6.4 12.9 0.00 0.00 0.00 79 1011.8
20260503055025 13 279 4.8 16.1 0.00 0.00 0.00 79 1012.1
20260503054542 13 280 4.8 16.1 0.00 0.00 0.00 79 1012.2
20260503054027 13 248 3.2 11.3 0.00 0.00 0.00 79 1012.2
20260503053525 13 259 4.8 12.9 0.00 0.00 0.00 79 1012.2
20260503053039 13 297 6.4 12.9 0.00 0.00 0.00 78 1012.3
20260503052526 13 258 4.8 14.5 0.00 0.00 0.00 78 1012.3
20260503052026 13 261 4.8 14.5 0.00 0.00 0.00 78 1012.2
20260503051540 13 266 4.8 11.3 0.00 0.00 0.00 79 1012.2
20260503051025 13 267 4.8 12.9 0.00 0.00 0.00 79 1012.1
20260503050526 13 252 4.8 12.9 0.00 0.00 0.00 79 1012.0
20260503050037 13 300 4.8 16.1 0.00 0.00 0.00 79 1012.1
20260503045526 13 307 3.2 16.1 0.00 0.00 0.00 79 1012.0
20260503045026 13 288 6.4 16.1 0.00 0.00 0.00 79 1012.1
20260503044537 13 237 4.8 14.5 0.00 0.00 0.00 80 1012.0
20260503044027 13 260 6.4 14.5 0.00 0.00 0.00 80 1012.0
20260503043526 13 271 4.8 14.5 0.00 0.00 0.00 80 1011.9
20260503043041 13 267 3.2 14.5 0.00 0.00 0.00 80 1011.7
20260503042530 13 259 6.4 14.5 0.00 0.00 0.00 80 1011.8
20260503042026 13 278 3.2 14.5 0.00 0.00 0.00 80 1011.8
20260503041542 13 294 4.8 14.5 0.00 0.00 0.00 79 1011.7
20260503041025 13 269 6.4 14.5 0.00 0.00 0.00 79 1011.7
20260503040526 13 246 4.8 14.5 0.00 0.00 0.00 79 1011.6
20260503040041 13 234 8.0 14.5 0.00 0.00 0.00 79 1011.6
20260503035525 13 281 6.4 14.5 0.00 0.00 0.00 79 1011.6
20260503035029 13 259 6.4 14.5 0.00 0.00 0.00 79 1011.6
20260503034539 13 254 6.4 17.7 0.00 0.00 0.00 79 1011.6
20260503034027 13 261 4.8 17.7 0.00 0.00 0.00 79 1011.5
20260503033527 13 277 8.0 17.7 0.00 0.00 0.00 78 1011.5
20260503033039 13 320 4.8 14.5 0.00 0.00 0.00 78 1011.6
20260503032526 13 261 3.2 12.9 0.00 0.00 0.00 78 1011.5
20260503032026 13 274 4.8 12.9 0.00 0.00 0.00 78 1011.5
20260503031541 13 294 6.4 12.9 0.00 0.00 0.00 78 1011.4
20260503031026 13 334 3.2 16.1 0.00 0.00 0.00 78 1011.3
20260503030525 13 311 3.2 16.1 0.00 0.00 0.00 77 1011.5
20260503025525 13 324 4.8 17.7 0.00 0.00 0.00 77 1011.2
20260503025026 13 293 6.4 17.7 0.00 0.00 0.00 77 1011.3
20260503024542 13 249 9.7 17.7 0.00 0.00 0.00 77 1011.2
20260503024026 13 266 6.4 17.7 0.00 0.00 0.00 77 1011.2
20260503023530 13 251 9.7 17.7 0.00 0.00 0.00 77 1011.1
20260503023039 13 278 9.7 17.7 0.00 0.00 0.00 77 1011.0
20260503022525 13 263 8.0 19.3 0.00 0.00 0.00 77 1011.1
20260503022025 13 265 9.7 19.3 0.00 0.00 0.00 76 1011.1
20260503021541 13 266 6.4 16.1 0.00 0.00 0.00 76 1011.1
20260503021026 13 303 4.8 19.3 0.00 0.00 0.00 76 1011.1
20260503020526 13 298 6.4 19.3 0.00 0.00 0.00 76 1011.1
20260503020038 13 294 11.3 22.5 0.00 0.00 0.00 75 1011.1
20260503015525 13 261 11.3 22.5 0.00 0.00 0.00 75 1011.2
20260503015025 14 295 8.0 17.7 0.00 0.00 0.00 75 1011.1
20260503014547 14 229 6.4 20.9 0.00 0.00 0.00 75 1011.2
20260503014026 14 259 6.4 20.9 0.00 0.00 0.00 75 1011.2
20260503013526 14 247 9.7 20.9 0.00 0.00 0.00 74 1011.3
20260503013044 14 274 8.0 20.9 0.00 0.00 0.00 74 1011.3
20260503012526 15 263 9.7 19.3 0.00 0.00 0.00 74 1011.2
20260503012025 14 240 11.3 19.3 0.00 0.00 0.00 74 1011.3
20260503011548 14 298 8.0 22.5 0.00 0.00 0.00 74 1011.3
20260503011025 15 281 9.7 22.5 0.00 0.00 0.00 74 1011.2
20260503010525 15 280 12.9 22.5 0.00 0.00 0.00 73 1011.1
20260503010038 15 265 9.7 25.7 0.00 0.00 0.00 73 1011.0
20260503005528 15 300 8.0 25.7 0.00 0.00 0.00 73 1011.1
20260503005025 15 271 9.7 20.9 0.00 0.00 0.00 72 1011.3
20260503004539 15 307 4.8 20.9 0.00 0.00 0.00 72 1011.2
20260503004025 15 245 8.0 19.3 0.00 0.00 0.00 72 1011.2
20260503003526 15 296 11.3 24.1 0.00 0.00 0.00 72 1011.2
20260503003046 15 282 11.3 24.1 0.00 0.00 0.00 72 1011.2
20260503002529 15 269 8.0 22.5 0.00 0.00 0.00 72 1011.2
20260503002026 15 246 11.3 24.1 0.00 0.00 0.00 72 1011.2
20260503001544 15 263 12.9 24.1 0.00 0.00 0.00 71 1011.2
20260503001026 15 254 8.0 17.7 0.00 0.00 0.00 71 1011.3
20260503000525 15 306 9.7 16.1 0.00 0.00 0.00 71 1011.3
20260503000041 16 261 8.0 17.7 0.00 0.00 0.00 71 1011.4
20260502235525 16 251 8.0 19.3 0.00 0.00 0.00 72 1011.3
20260502235031 15 283 9.7 19.3 0.00 0.00 0.00 71 1011.4
20260502234539 15 289 6.4 20.9 0.00 0.00 0.00 73 1011.4
20260502234028 15 282 9.7 24.1 0.00 0.00 0.00 73 1011.6
20260502233527 15 259 9.7 24.1 0.00 0.00 0.00 72 1011.6
20260502233040 15 253 8.0 17.7 0.00 0.00 0.00 72 1011.5
20260502232528 16 275 11.3 17.7 0.00 0.00 0.00 70 1011.7
20260502232028 16 284 6.4 20.9 0.00 0.00 0.00 71 1011.5
20260502231539 16 338 8.0 20.9 0.00 0.00 0.00 70 1011.7
20260502231027 16 327 9.7 24.1 0.00 0.00 0.00 69 1011.8
20260502230527 16 284 11.3 24.1 0.00 0.00 0.00 69 1011.9
20260502230045 16 263 8.0 19.3 0.00 0.00 0.00 70 1011.8
20260502225527 16 315 8.0 20.9 0.00 0.00 0.00 69 1011.9
20260502225027 16 267 8.0 20.9 0.00 0.00 0.00 69 1012.0
20260502224542 16 256 9.7 19.3 0.00 0.00 0.00 69 1011.9
20260502224032 16 333 8.0 19.3 0.00 0.00 0.00 70 1012.0
20260502223531 16 256 8.0 20.9 0.00 0.00 0.00 70 1012.1
20260502223040 16 296 9.7 20.9 0.00 0.00 0.00 69 1012.2
20260502222527 17 269 6.4 22.5 0.00 0.00 0.00 68 1012.2
20260502222027 16 252 9.7 22.5 0.00 0.00 0.00 70 1012.4
20260502221540 16 355 8.0 22.5 0.00 0.00 0.00 69 1012.4
20260502221028 16 269 9.7 22.5 0.00 0.00 0.00 69 1012.4
20260502220527 16 254 8.0 19.3 0.00 0.00 0.00 70 1012.6
20260502220041 16 257 9.7 19.3 0.00 0.00 0.00 69 1012.8
20260502215528 16 281 6.4 17.7 0.00 0.00 0.00 69 1012.7
20260502215026 16 210 8.0 17.7 0.00 0.00 0.00 70 1012.8
20260502214538 16 273 6.4 22.5 0.00 0.00 0.00 72 1012.8
20260502214031 16 262 6.4 22.5 0.00 0.00 0.00 72 1012.9
20260502213528 16 250 8.0 19.3 0.00 0.00 0.00 73 1012.8
20260502213045 16 266 8.0 19.3 0.00 0.00 0.00 73 1012.9
20260502212529 16 236 9.7 22.5 0.00 0.00 0.00 72 1012.9
20260502212028 16 272 12.9 22.5 0.00 0.00 0.00 71 1013.0
20260502211545 16 288 6.4 16.1 0.00 0.00 0.00 71 1012.8
20260502211028 16 250 9.7 17.7 0.00 0.00 0.00 71 1012.9
20260502210527 16 288 8.0 17.7 0.00 0.00 0.00 72 1012.9
20260502210039 16 284 4.8 17.7 0.00 0.00 0.00 74 1013.1
20260502205527 16 266 8.0 17.7 0.00 0.00 0.00 72 1013.1
20260502205027 16 274 6.4 17.7 0.00 0.00 0.00 74 1013.2
20260502204538 16 267 6.4 17.7 0.00 0.00 0.00 74 1013.3
20260502204027 16 261 8.0 17.7 0.00 0.00 0.00 73 1013.3
20260502203527 16 257 8.0 16.1 0.00 0.00 0.00 74 1013.4
20260502203059 16 254 4.8 14.5 0.00 0.00 0.00 74 1013.5
20260502202527 15 284 8.0 17.7 0.00 0.00 0.00 74 1013.5
20260502202027 15 277 8.0 19.3 0.00 0.00 0.00 74 1013.6
20260502201536 15 223 11.3 19.3 0.00 0.00 0.00 74 1013.7
20260502201031 16 278 4.8 14.5 0.00 0.00 0.00 74 1013.8
20260502200530 16 240 6.4 14.5 0.00 0.00 0.00 73 1013.7
20260502200043 15 202 6.4 14.5 0.00 0.00 0.00 75 1013.7
20260502195527 15 241 6.4 16.1 0.00 0.00 0.00 76 1013.8
20260502195027 15 260 6.4 17.7 0.00 0.00 0.00 75 1013.8
20260502194541 15 246 6.4 17.7 0.00 0.00 0.00 75 1013.8
20260502194027 15 232 8.0 17.7 0.00 0.00 0.00 75 1013.9
20260502193527 15 260 6.4 17.7 0.00 0.00 0.00 75 1013.9
20260502193040 15 212 6.4 16.1 0.00 0.00 0.00 75 1013.8
20260502192528 15 265 4.8 12.9 0.00 0.00 0.00 75 1013.8
20260502192031 15 288 4.8 16.1 0.00 0.00 0.00 76 1013.8
20260502191538 15 360 6.4 16.1 0.00 0.00 0.00 77 1013.9
20260502191028 15 268 4.8 16.1 0.00 0.00 0.00 77 1013.8
20260502190528 15 261 6.4 20.9 0.00 0.00 0.00 76 1013.9
20260502190037 15 239 9.7 20.9 0.00 0.00 0.00 77 1013.9
20260502185527 15 273 4.8 14.5 0.00 0.00 0.00 77 1013.9
20260502185028 15 240 4.8 12.9 0.00 0.00 0.00 77 1013.8
20260502184535 15 205 3.2 12.9 0.00 0.00 0.00 77 1013.8
20260502184028 15 226 4.8 11.3 0.00 0.00 0.00 77 1013.8
20260502183527 15 254 4.8 14.5 0.00 0.00 0.00 78 1013.8
20260502183040 15 277 3.2 14.5 0.00 0.00 0.00 79 1013.8
20260502182531 15 267 6.4 14.5 0.00 0.00 0.00 79 1013.9
20260502182028 15 252 6.4 14.5 0.00 0.00 0.00 79 1013.8
20260502181556 14 209 4.8 14.5 0.00 0.00 0.00 80 1013.8
20260502181027 14 261 6.4 14.5 0.00 0.00 0.00 80 1013.9
20260502180527 14 292 6.4 16.1 0.00 0.00 0.00 79 1013.8